Location: Cucq
(50.4773°N, 1.6202°E)
Time: 06:28:35
(UTC+00:00)

Meteor 1-16 Rocket - Pass Details

Date: 07 August 2020
Orbit: 791 x 906 km, 81.2° (Epoch: 23 September)

Event Time Altitude Azimuth Distance (km) Brightness Sun altitude
Rises 03:38:33 0° 188° (S) 3,291 6.8 -7.8°
Reaches altitude 10° 03:40:53 10° 188° (S) 2,374 6.1 -7.5°
Maximum altitude 03:46:15 85° 100° (E) 826 4.2 -6.8°
Drops below altitude 10° 03:51:48 10° 13° (NNE) 2,457 7.4 -6.1°
Sets 03:54:16 0° 13° (NNE) 3,414 8.2 -5.8°
